Main page
METAR-TAF:

METAR-TAF

Airports :

Bahrain International Airport

Bahrain, Bahrain

latitude: 26-16N, longitude: 050-39E, elevation: 2 m

Current weather observation

The report was made 18 minutes ago, at 14:00 UTC
Wind 10 kt from the North/Northwest
Temperature 36°C
Humidity 50%
Pressure 996 hPa
Visibility 10 km or more
no clouds below 1500 m and no cumulonimbus

METAR: OBBI 181400Z 33010KT CAVOK 36/24 Q0996 NOSIG

Time: 17:18 (14:18 UTC)

Forecast

The report was made 3 hours and 18 minutes ago, at 11:00 UTC
Forecast valid from 18 at 12 UTC to 19 at 18 UTC
Wind 16 kt from the North/Northwest
Visibility 10 km or more
no clouds below 1500 m and no cumulonimbus
Becoming
from 18 at 16 UTC to 18 at 18 UTC
Wind 10 kt from the West
Becoming
from 19 at 04 UTC to 19 at 06 UTC
Wind 16 kt from the North/Northwest

TAF: OBBI 181100Z 1812/1918 34016KT CAVOK BECMG 1816/1818 28010KT BECMG 1904/1906 34016KT

Weather observations and forecasts of more than 4000 airports (METAR and TAF reports).

The available stations are represented by yellow and red dots on the map.

Hover mouse over dot to see the name of the station.

Then click to see weather observations and forecasts.

To change the map : click on the green buttons with a black cross to zoom in, on the green button with a dash to zoom out, or on the green arrows for adjacent maps.


METAR-TAF: